Home > Weather > Tulsa > Past weeks

Flag for USA Past Weather in Tulsa, Oklahoma, USA — Yesterday and Last 2 Weeks

Now
81 °F

Overcast.


Feels Like: 86 °F
Forecast: 76 / 88 °F
Wind: No wind

Location: Tulsa International Airport

Current Time: Jul 26, 2016 at 3:34:33 AM

Latest Report: Jul 26, 2016 at 2:53 AM


Visibility: 10 mi

Pressure: 29.95 "Hg

Humidity: 79%

Dew Point: 74 °F

Location of TulsaLocation

Past Weather in Tulsa — Graph

°F

Tulsa Temperature Yesterday

Maximum temperature yesterday: 90 °F (at 1:53 PM)
Minimum temperature yesterday: 81 °F (at 11:53 PM)
Average temperature yesterday: 86 °F

High & Low Weather Summary for the Past Weeks

 TemperatureHumidityPressure
High101 °F (Jul 24, 4:53 PM)96% (Jul 14, 12:53 PM)30.19 "Hg (Jul 14, 12:53 PM)
Low68 °F (Jul 14, 12:53 PM)33% (Jul 14, 4:53 AM)29.71 "Hg (Jul 11, 6:53 PM)
Average87 °F62%29.95 "Hg
* Reported Jul 11 1:53 AM — Jul 26 1:53 AM, Tulsa, Weather by CustomWeather, © 2016

Note: Actual official high and low records may vary slightly from our data, if they occured in-between our weather recording intervals... More about our weather records

Advertising

Tulsa Weather History for the Previous 24 Hours

Scroll right to see more
 ConditionsComfort  
Time TempWeatherWind HumidityBarometerVisibility
1:53 AM
Tue, Jul 26
80 °FMostly cloudy.No wind81%29.95 "Hg10 mi
12:53 AM81 °FMostly cloudy.5 mph79%29.96 "Hg10 mi
11:53 PM
Mon, Jul 25
81 °FMostly cloudy.5 mph79%29.96 "Hg10 mi
10:53 PM82 °FPartly cloudy.9 mph74%29.94 "Hg10 mi
9:53 PM83 °FPartly cloudy.13 mph72%29.93 "Hg10 mi
8:53 PM84 °FMore clouds than sun.12 mph72%29.93 "Hg10 mi
7:53 PM86 °FMore clouds than sun.12 mph70%29.91 "Hg10 mi
6:53 PM88 °FBroken clouds.12 mph63%29.88 "Hg10 mi
5:53 PM90 °FBroken clouds.6 mph59%29.88 "Hg10 mi
4:53 PM90 °FOvercast.9 mph57%29.88 "Hg10 mi
3:53 PM89 °FPartly sunny.7 mph59%29.89 "Hg10 mi
2:53 PM90 °FPartly sunny.9 mph59%29.91 "Hg10 mi
1:53 PM90 °FPartly sunny.7 mph59%29.94 "Hg10 mi
1:04 PM88 °FBroken clouds.15 mph63%30.00 "Hg10 mi
12:53 PM88 °FPartly sunny.13 mph63%29.98 "Hg10 mi
12:01 PM86 °FPartly sunny.12 mph67%30.01 "Hg10 mi
11:53 AM85 °FBroken clouds.15 mph70%29.98 "Hg10 mi
10:53 AM86 °FBroken clouds.14 mph70%29.97 "Hg10 mi
9:53 AM87 °FPartly sunny.18 mph63%29.99 "Hg10 mi
8:53 AM87 °FPartly sunny.15 mph63%29.96 "Hg10 mi
7:53 AM83 °FLight rain. Partly sunny.12 mph74%29.95 "Hg10 mi
6:53 AM84 °FPassing clouds.10 mph72%29.92 "Hg10 mi
5:53 AM84 °FPassing clouds.9 mph72%29.91 "Hg10 mi
4:53 AM84 °FClear.9 mph72%29.91 "Hg10 mi
3:53 AM84 °FClear.6 mph72%29.91 "Hg10 mi
Weather by CustomWeather, © 2016

See weather overviewHow to use our weather pages